Hourly Data Report for June 21, 2021

WINNIPEG THE FORKS
MANITOBA
Current Station Operator: ECCC - MSC

49°53'18.008" N
97°07'46.007" W
230.00 m
5023262
71579
XWN

Download Data

Hourly Data (June 2021)
Hourly Data Report for June 21, 2021
TIME
LST
Temp Definition
°C
Dew Point Definition
°C
Rel Hum Definition
%
Precip. Amount Definition
mm

Wind Dir Definition
10's deg

Wind Spd Definition
km/h
Visibility Definition
km
Stn Press Definition
kPa
Hmdx Definition


Wind Chill Definition


Weather Definition


00:00 9.9 1.2 54 0.0 34 7   98.61     LegendNANA
01:00 9.3 1.8 60 0.0 32 7   98.62     LegendNANA
02:00 8.7 2.3 64 0.0 32 9   98.64     LegendNANA
03:00 8.0 2.4 68 0.0 32 9   98.68     LegendNANA
04:00 7.7 2.7 71 0.0 31 5   98.71     LegendNANA
05:00 7.7 2.9 72 0.0 33 4   98.74     LegendNANA
06:00 8.9 3.4 68 0.0 33 7   98.79     LegendNANA
07:00 10.3 3.7 64 0.0 29 6   98.82     LegendNANA
08:00 11.8 3.8 58 0.0 29 5   98.82     LegendNANA
09:00 13.0 -0.4 40 0.0 33 9   98.81     LegendNANA
10:00 13.4 0.5 41 0.0 33 7   98.78     LegendNANA
11:00 13.6 0.3 40 0.0 32 7   98.73     LegendNANA
12:00 13.8 2.7 47 0.0 31 10   98.71     LegendNANA
13:00 14.2 2.1 44 0.0 29 5   98.65     LegendNANA
14:00 14.1 3.2 48 0.0 31 6   98.63     LegendNANA
15:00 15.4 1.7 40 0.0 30 5   98.60     LegendNANA
16:00 15.4 1.2 38 0.0 34 10   98.52     LegendNANA
17:00 15.7 1.2 38 0.0 33 8   98.46     LegendNANA
18:00 15.8 0.0 34 0.0 33 7   98.40     LegendNANA
19:00 15.6 1.1 37 0.0 36 4   98.36     LegendNANA
20:00 15.6 0.5 36 0.0 32 2   98.33     LegendNANA
21:00 15.2 1.1 38 0.0 20 4   98.29     LegendNANA
22:00 14.5 2.6 45 0.0 0 1   98.27     LegendNANA
23:00 12.9 3.2 51 0.0   0   98.27     LegendNANA

Notes on Data Quality.

Legend

  • E = Estimated
  • M = Missing
  • NA = Not Available*
  • [empty] = Indicates an unobserved value
Date modified: